This is the latest recevied weather packets stored in our database for station/object DL4YM-13. If no packets are shown the sender has not sent any weather packets the latest 10 day(s).
| Time | Temp. | Humidity | Pressure | Rain* | Wind** | Luminosity | Snow |
|---|---|---|---|---|---|---|---|
| 1777854926 | 11.67° C | 84% | 996.3 hPa | - | - | - | - |
| 1777854326 | 11.67° C | 84% | 996.3 hPa | - | - | - | - |
| 1777853727 | 12.22° C | 83% | 996 hPa | - | - | - | - |
| 1777853126 | 12.22° C | 83% | 996 hPa | - | - | - | - |
| 1777852526 | 12.22° C | 83% | 996.1 hPa | - | - | - | - |
| 1777851926 | 12.22° C | 84% | 996.5 hPa | - | - | - | - |
| 1777851326 | 12.22° C | 84% | 996.5 hPa | - | - | - | - |
| 1777850726 | 12.78° C | 83% | 996.4 hPa | - | - | - | - |
| 1777850127 | 12.78° C | 83% | 996.4 hPa | - | - | - | - |
| 1777849526 | 13.33° C | 81% | 996.3 hPa | - | - | - | - |
| 1777848926 | 13.33° C | 81% | 996.3 hPa | - | - | - | - |
| 1777848326 | 13.33° C | 80% | 996.3 hPa | - | - | - | - |
| 1777847726 | 13.89° C | 79% | 996.3 hPa | - | - | - | - |
| 1777847126 | 13.89° C | 79% | 996.3 hPa | - | - | - | - |
| 1777846526 | 13.89° C | 79% | 996.3 hPa | - | - | - | - |
| 1777845927 | 13.89° C | 79% | 996.3 hPa | - | - | - | - |
| 1777845326 | 14.44° C | 77% | 996.3 hPa | - | - | - | - |
| 1777844726 | 14.44° C | 77% | 996.3 hPa | - | - | - | - |
| 1777844127 | 14.44° C | 77% | 996.3 hPa | - | - | - | - |
| 1777843526 | 14.44° C | 77% | 996.3 hPa | - | - | - | - |
| 1777842926 | 14.44° C | 77% | 996.4 hPa | - | - | - | - |
| 1777842326 | 14.44° C | 77% | 996.4 hPa | - | - | - | - |
| 1777841726 | 13.89° C | 78% | 996.3 hPa | - | - | - | - |
| 1777841126 | 13.89° C | 78% | 996.3 hPa | - | - | - | - |
| 1777840527 | 13.89° C | 77% | 996.2 hPa | - | - | - | - |
* Rain since midnight (hover to see other rain measurements)
** Current wind speed in m/s (hover to see current wind gust speed)